[keps] orb07011.2l.amsat

Ray Hoad r.hoad at att.net
Thu Jan 11 19:10:23 PST 2007


SB KEPS @ AMSAT  $ORB07011.N
2Line Orbital Elements 07011.AMSAT

HR AMSAT ORBITAL ELEMENTS FOR AMATEUR SATELLITES IN NASA FORMAT
FROM WA5QGD FORT WORTH,TX January 11, 2007
Send SUBSCRIBE KEPS/UNSUBSCRIBE KEPS to majordomo at amsat.org only
BID: ORB07011.N

DECODE 2-LINE ELSETS WITH THE FOLLOWING KEY:
1 AAAAAU 00  0  0 BBBBB.BBBBBBBB  .CCCCCCCC  00000-0  00000-0 0  DDDZ
2 AAAAA EEE.EEEE FFF.FFFF GGGGGGG HHH.HHHH III.IIII JJ.JJJJJJJJKKKKKZ
KEY: A-CATALOGNUM B-EPOCHTIME C-DECAY D-ELSETNUM E-INCLINATION F-RAAN
G-ECCENTRICITY H-ARGPERIGEE I-MNANOM J-MNMOTION K-ORBITNUM Z-CHECKSUM

TO ALL RADIO AMATEURS BT

AO-07
1 07530U 74089B   07011.16219702 -.00000028  00000-0  10000-3 0  7779
2 07530 101.5395 053.6577 0012009 201.4700 158.5869 12.53572360471446
AO-10
1 14129U 83058B   07010.20108425  .00000007  00000-0  10000-3 0 03480
2 14129 027.0402 297.2277 6048980 348.5541 002.2672 02.05867797177314
UO-11
1 14781U 84021B   07011.49279122  .00000364  00000-0  56012-4 0  2726
2 14781 098.2012 031.0761 0008640 321.9086 038.1536 14.79511519226560
RS-10/11
1 18129U 87054A   07011.56567162  .00000016  00000-0  15567-5 0  1912
2 18129 082.9243 174.0231 0010336 232.5658 127.4556 13.72783137979741
RS-15
1 23439U 94085A   07010.90955111 -.00000039  00000-0  10597-3 0 00209
2 23439 064.8192 261.2728 0164058 218.2711 140.6475 11.27551499495961
FO-29
1 24278U 96046B   07010.90621349  .00000050  00000-0  84234-4 0 04210
2 24278 098.5293 351.8448 0351206 130.8933 232.3195 13.52926383513633
SO-33
1 25509U 98061B   07011.26664905  .00000185  00000-0  24955-4 0  8387
2 25509 031.4309 032.9363 0354977 135.5916 227.3747 14.28145071428801
AO-40
1 26609U 00072B   07010.70124764 -.00000156  00000-0  10000-3 0  8256
2 26609 004.9129 186.3198 7998977 256.1438 013.0075 01.25585833 28467
VO-52
1 28650U 05017B   07010.37967806  .00000460  00000-0  65444-4 0  5261
2 28650 097.8507 084.5016 0028056 049.2697 311.0942 14.81249829 91054
AO-16
1 20439U 90005D   07010.50044478 -.00000011  00000-0  11026-4 0  9393
2 20439 098.1894 013.8040 0010154 300.3824 059.6355 14.31746586885982
LO-19
1 20442U 90005G   07011.82311153 -.00000084  00000-0 -16366-4 0  8718
2 20442 098.1823 024.5530 0011198 295.2907 064.7105 14.31987879886314
AO-27
1 22825U 93061C   07011.51734779  .00000083  00000-0  48909-4 0  5902
2 22825 098.3108 348.4054 0008719 011.6577 348.4819 14.29196488693119
IO-26
1 22826U 93061D   07010.82160104  .00000001  00000-0  16716-4 0 02853
2 22826 098.3031 348.8767 0009368 010.4020 349.7352 14.29441354693099
PO-28
1 22829U 93061G   07011.48410049 -.00000053  00000-0 -44306-5 0  5663
2 22829 098.2937 350.6960 0009606 343.0023 017.0840 14.30138993693412
GO-32
1 25397U 98043D   07011.16222006 -.00000016  00000-0  11591-4 0  2035
2 25397 098.4395 065.0632 0001051 015.3406 344.7797 14.23118560441825
MO-46
1 26548U 00057D   07011.34374383  .00000070  00000-0  26752-4 0  6946
2 26548 064.5586 307.8667 0033176 217.9079 141.9684 14.83083762340274
NO-44
1 26931U 01043C   07011.50344066  .00000067  00000-0  58658-4 0  4956
2 26931 067.0495 191.0923 0005177 278.4738 081.5825 14.29468927275700
SO-50
1 27607U 02058C   07011.51269228  .00000041  00000-0  28320-4 0  2156
2 27607 064.5560 200.6930 0037512 054.8349 305.6278 14.71217870218078
CO-55
1 27844U 03031E   07011.73332514  .00000045  00000-0  41387-4 0  9366
2 27844 098.7193 022.1637 0009759 178.2817 181.8373 14.20484637183269
CO-57
1 27848U 03031J   07010.53653956  .00000057  00000-0  47137-4 0  8993
2 27848 098.7179 020.2387 0009531 185.7210 174.3858 14.20307665183075
AO-51
1 28375U 04025K   07010.62060885  .00000023  00000-0  20199-4 0  7201
2 28375 098.1362 057.8773 0083886 300.5613 058.7320 14.40551098133025
CO-56
1 28941U 06005C   07011.84371421  .00020004  23062-5  22629-3 0  3211
2 28941 098.1542 056.1455 0250875 104.0478 258.8780 15.33272329 49426
HO-59
1 29484U 06041F   07011.77676801  .00028498  25148-5  23608-3 0  1517
2 29484 098.3125 039.1325 0253279 101.8317 261.1551 15.39017138 16926
NO-60
1 29661U 06055C   07011.54496744  .00047247  00000-0  20285-3 0   302
2 29661 051.6406 192.1738 0013631 102.4517 257.8025 15.84438145  3413
NO-61
1 29667U 06055J   07011.56035285  .00015976  00000-0  76789-4 0   203
2 29667 051.6345 192.2686 0017886 096.2560 264.0480 15.82668765  3155
NOAA-10
1 16969U 86073A   07011.06641759  .00000012  00000-0  23070-4 0  4963
2 16969 098.7541 028.0851 0011670 266.1917 093.7935 14.27314725 56810
NOAA-11
1 19531U 88089A   07011.27700646 -.00000041  00000-0  13009-5 0  4723
2 19531 098.8182 102.3753 0012350 115.7142 244.5288 14.14832650943968
NOAA-12
1 21263U 91032A   07011.28968258  .00000070  00000-0  48562-4 0  9677
2 21263 098.7459 008.8520 0012540 200.0902 159.9788 14.25520471813893
MET-3/5
1 21655U 91056A   07010.91527167  .00000051  00000-0  10000-3 0 02292
2 21655 082.5552 114.0649 0012365 240.6507 119.3380 13.17009893740708
MET-2/21
1 22782U 93055A   07011.51753125 -.00000033  00000-0 -43187-4 0  7196
2 22782 082.5481 166.1954 0021467 318.7880 041.1653 13.83614098674851
OKEAN-4
1 23317U 94066A   07010.77952060  .00000352  00000-0  40665-4 0 01576
2 23317 082.5390 083.3886 0023631 053.8349 306.5064 14.82455294660738
NOAA-14
1 23455U 94089A   07011.31223533  .00000084  00000-0  68638-4 0  4611
2 23455 099.0127 076.5162 0009663 179.6956 180.4268 14.13690874620474
SICH-1
1 23657U 95046A   07011.38768343  .00000171  00000-0  18658-4 0  9584
2 23657 082.5268 223.7146 0025104 041.5980 318.7126 14.81440065612819
NOAA-15
1 25338U 98030A   07011.48094347 -.00000047  00000-0 -18848-5 0  8254
2 25338 098.5262 012.6336 0011328 124.6437 235.5845 14.24620842450372
RESURS
1 25394U 98043A   07010.75961248  .00000026  00000-0  29599-4 0 05517
2 25394 098.4665 071.3442 0001090 326.6781 033.4332 14.24124145441945
FENGYUN1
1 25730U 99025A   07011.85926054 -.00000323  00000-0 -15384-3 0  9309
2 25730 098.6472 001.6963 0013521 266.7264 214.8385 14.11818924395451
OKEAN-0
1 25860U 99039A   07011.63232476  .00000079  00000-0  19343-4 0  9500
2 25860 097.7298 021.2097 0001415 104.8446 255.2906 14.73422301402444
NOAA-16
1 26536U 00055A   07011.49195959  .00000057  00000-0  55700-4 0  2268
2 26536 099.0986 345.8690 0009974 252.9454 107.0642 14.12396330324988
NOAA-17
1 27453U 02032A   07011.25172388  .00000047  00000-0  39460-4 0  2443
2 27453 098.6001 084.1922 0011992 186.9706 173.1321 14.23844287236385
NOAA-18
1 28654U 05018A   07011.26139691  .00000260  00000-0  16891-3 0  7944
2 28654 098.8142 315.3156 0014418 355.5577 004.5484 14.11027319 84723
HUBBLE
1 20580U 90037B   07011.73758471  .00000451  00000-0  22241-4 0  7808
2 20580 028.4661 130.2520 0003806 231.5494 128.4756 15.00173510716440
UARS
1 21701U 91063B   07010.96354773  .00003629  00000-0  69956-4 0 09845
2 21701 056.9778 275.3068 0091736 246.8523 112.2847 15.46341932841413
PO-34
1 25520U 98064B   07010.60791888  .00000600  00000-0  19933-4 0  6516
2 25520 028.4590 083.3323 0004744 334.8440 025.1924 15.16900241453577
ISS
1 25544U 98067A   07011.98410817  .00013542  00000-0  84388-4 0  4240
2 25544 051.6319 191.0772 0023652 082.2094 058.2639 15.76931660466101
OO-38
1 26063U 00004C   07010.81960937 -.00000017  00000-0  14514-4 0 08135
2 26063 100.2138 344.4668 0036581 242.4665 117.2801 14.35792258364471
NO-45
1 26932U 01043D   07010.94695759 -.00000074  00000-0  34847-5 0 05025
2 26932 067.0518 192.2669 0003299 265.4545 094.6179 14.29546141275669
UWE-1
1 28892U 05043C   07011.48763466  .00000132  00000-0  37523-4 0  6508
2 28892 098.1469 271.0967 0016310 240.6930 119.2627 14.59451667 64359
CO-58
1 28895U 05043F   07010.64887445 -.00000073  00000-0 -55402-5 0 06336
2 28895 098.1492 270.4266 0016950 243.4362 116.5079 14.59500363064116
NCUBE2
1 28897U 05043H   07010.67246412  .00000194  00000-0  50510-4 0 01706
2 28897 098.1475 270.4194 0016288 245.3191 114.6321 14.59660328056392
NMARS
1 29662U 06055D   07011.54477645  .00056624  00000-0  23961-3 0   349
2 29662 051.6403 192.1747 0014297 105.3575 254.9023 15.84649919  3303
FCAL
1 29664U 06055F   07011.56042641  .00023510  00000-0  11067-3 0   215
2 29664 051.6339 192.2703 0017269 095.2339 265.0634 15.82798703  3285
/EX






More information about the Keps mailing list